Find Starlink 34902

NORAD ID: 65326 Int'l Des: 2025-189 Owner: SPXS Country: US Constellation: starlink operational
LEOCIRCULAR

当前视图

正在加载3D地球...

About Starlink 34902

Starlink 34902 (NORAD 65326) is a starlink constellation satellite (v2 mini) launched Aug 27, 2025 by SPXS of US. It operates in LEO, CIRCULAR orbit with a mass of 575.00 kg.

即将过境

Passes for default location (London). Set your location on the main map for personalized predictions.

高度历史

Loading altitude history...

两行轨道根数

1 65326U 25189D 26263.58335648 -.00010206 00000-0 -29164-3 0 9994
2 65326 53.1586 19.1523 0001043 81.5740 103.6091 15.34367667 5739
Epoch: Sep 20, 2026 • Age: 12 hours

当前状态

高度 463.7 km
远地点 / 近地点 N/A
速度 7.64 km/s
星下点 0.89°N, 158.88°E
发射日期 Aug 27, 2025
运行时间 1 year
类型 internet

技术详情

分类 Payload
质量 575.00 kg
干质量 530.00 kg
长度 0.30 m
跨度 29.00 m
形状 ? Box + pan
制造商 SPXS
平台类型 Starlink V2MO
阶段状态 In Orbit
所有者/国家 SPXS/US

Most Searched